Time,TemperatureF,DewpointF,PressureIn,WindDirection,WindDirectionDegrees,WindSpeedMPH,WindSpeedGustMPH,Humidity,HourlyPrecipIn,Conditions,Clouds,dailyrainin,SoftwareType,DateUTC
2017-11-23 00:10:00,41.9,39.2,29.86,ENE,68,0.0,0.0,90,0.00,,,0.00,WUHU216HW,2017-11-23 08:10:00,
2017-11-23 00:15:00,41.7,39.0,29.86,WNW,293,0.0,0.0,90,0.00,,,0.00,WUHU216HW,2017-11-23 08:15:00,
2017-11-23 00:20:00,41.7,39.0,29.85,WNW,293,0.0,0.0,90,0.00,,,0.00,WUHU216HW,2017-11-23 08:20:00,
2017-11-23 00:25:00,41.7,39.0,29.85,SW,225,0.0,0.0,90,0.00,,,0.00,WUHU216HW,2017-11-23 08:25:00,
2017-11-23 00:30:00,41.7,39.0,29.85,South,180,0.0,0.0,90,0.00,,,0.00,WUHU216HW,2017-11-23 08:30:00,
2017-11-23 00:35:00,41.7,39.0,29.85,South,180,0.0,0.0,90,0.00,,,0.00,WUHU216HW,2017-11-23 08:35:00,
2017-11-23 00:40:00,41.7,39.0,29.85,South,180,0.0,0.0,90,0.00,,,0.00,WUHU216HW,2017-11-23 08:40:00,
2017-11-23 00:45:00,41.7,39.0,29.84,North,0,0.0,0.0,90,0.00,,,0.00,WUHU216HW,2017-11-23 08:45:00,
2017-11-23 00:50:00,41.7,39.0,29.83,NE,45,0.0,0.0,90,0.00,,,0.00,WUHU216HW,2017-11-23 08:50:00,
2017-11-23 00:55:00,41.7,39.0,29.82,NE,45,0.0,0.0,90,0.00,,,0.00,WUHU216HW,2017-11-23 08:55:00,
2017-11-23 01:01:00,41.7,39.0,29.82,NE,45,0.0,0.0,90,0.00,,,0.00,WUHU216HW,2017-11-23 09:01:00,
2017-11-23 01:10:00,41.7,39.0,29.83,NE,45,0.0,0.0,90,0.00,,,0.00,WUHU216HW,2017-11-23 09:10:00,
2017-11-23 01:15:00,41.7,39.0,29.84,NE,45,0.0,0.0,90,0.00,,,0.00,WUHU216HW,2017-11-23 09:15:00,
2017-11-23 01:20:00,41.7,39.0,29.83,ENE,68,2.4,2.4,90,0.00,,,0.00,WUHU216HW,2017-11-23 09:20:00,
2017-11-23 01:25:00,41.5,38.8,29.83,NNE,26,1.5,5.1,90,0.00,,,0.00,WUHU216HW,2017-11-23 09:25:00,
2017-11-23 01:26:00,41.5,38.8,29.83,NNE,26,1.5,5.1,90,0.00,,,0.00,WUHU216HW,2017-11-23 09:26:00,
2017-11-23 01:31:00,41.5,38.8,29.83,NNW,338,4.9,5.1,90,0.00,,,0.00,WUHU216HW,2017-11-23 09:31:00,
2017-11-23 01:36:00,41.5,38.8,29.83,NW,315,3.5,6.0,90,0.00,,,0.00,WUHU216HW,2017-11-23 09:36:00,
2017-11-23 01:41:00,41.5,38.8,29.84,NNW,338,2.9,6.0,90,0.00,,,0.00,WUHU216HW,2017-11-23 09:41:00,
2017-11-23 01:46:00,41.5,38.8,29.85,North,0,0.0,3.8,90,0.00,,,0.00,WUHU216HW,2017-11-23 09:46:00,
2017-11-23 01:51:00,41.5,38.8,29.83,NNE,23,0.0,0.0,90,0.00,,,0.00,WUHU216HW,2017-11-23 09:51:00,
2017-11-23 01:56:00,41.5,38.8,29.82,NE,45,0.0,3.1,90,0.00,,,0.00,WUHU216HW,2017-11-23 09:56:00,
2017-11-23 02:01:00,41.5,38.8,29.83,NE,45,1.1,3.1,90,0.00,,,0.00,WUHU216HW,2017-11-23 10:01:00,
2017-11-23 02:06:00,41.5,38.8,29.83,ENE,68,0.0,1.1,90,0.00,,,0.00,WUHU216HW,2017-11-23 10:06:00,
2017-11-23 02:11:00,41.5,38.8,29.82,NE,45,0.0,1.1,90,0.00,,,0.00,WUHU216HW,2017-11-23 10:11:00,
2017-11-23 02:16:00,41.5,38.8,29.83,NE,45,0.0,0.0,90,0.00,,,0.00,WUHU216HW,2017-11-23 10:16:00,
2017-11-23 02:21:00,41.5,38.8,29.83,NE,45,0.0,0.0,90,0.00,,,0.00,WUHU216HW,2017-11-23 10:21:00,
2017-11-23 02:26:00,41.5,38.8,29.84,NE,45,0.0,0.0,90,0.00,,,0.00,WUHU216HW,2017-11-23 10:26:00,
2017-11-23 02:31:00,41.5,38.8,29.84,NE,45,0.0,0.0,90,0.00,,,0.00,WUHU216HW,2017-11-23 10:31:00,
2017-11-23 02:36:00,41.5,38.8,29.84,NE,45,0.0,0.0,90,0.00,,,0.00,WUHU216HW,2017-11-23 10:36:00,
2017-11-23 02:41:00,41.5,38.8,29.84,NE,45,0.0,0.0,90,0.00,,,0.00,WUHU216HW,2017-11-23 10:41:00,
2017-11-23 02:46:00,41.7,39.0,29.84,NE,45,0.0,0.0,90,0.00,,,0.00,WUHU216HW,2017-11-23 10:46:00,
2017-11-23 02:51:00,41.7,39.0,29.84,SE,135,0.0,0.0,90,0.00,,,0.00,WUHU216HW,2017-11-23 10:51:00,
2017-11-23 02:56:00,41.7,39.0,29.84,SE,135,0.0,0.0,90,0.00,,,0.00,WUHU216HW,2017-11-23 10:56:00,
2017-11-23 03:01:00,41.7,39.0,29.82,SE,135,0.0,0.0,90,0.00,,,0.00,WUHU216HW,2017-11-23 11:01:00,
2017-11-23 03:15:00,41.5,38.8,29.82,East,90,0.0,0.0,90,0.00,,,0.00,WUHU216HW,2017-11-23 11:15:00,
2017-11-23 03:30:00,41.5,38.8,29.83,ESE,113,0.0,0.0,90,0.00,,,0.00,WUHU216HW,2017-11-23 11:30:00,
2017-11-23 03:40:00,41.5,38.8,29.83,ESE,113,0.0,0.0,90,0.00,,,0.00,WUHU216HW,2017-11-23 11:40:00,
2017-11-23 03:50:00,41.5,38.8,29.82,ENE,68,1.1,1.1,90,0.00,,,0.00,WUHU216HW,2017-11-23 11:50:00,
2017-11-23 03:55:00,41.5,38.8,29.82,NE,45,0.0,1.1,90,0.00,,,0.00,WUHU216HW,2017-11-23 11:55:00,
2017-11-23 04:00:00,41.5,38.8,29.82,NE,45,0.0,0.0,90,0.00,,,0.00,WUHU216HW,2017-11-23 12:00:00,
2017-11-23 04:15:00,41.5,38.8,29.81,ESE,113,0.0,0.0,90,0.00,,,0.00,WUHU216HW,2017-11-23 12:15:00,
2017-11-23 04:20:00,41.5,38.8,29.81,ESE,113,0.0,0.0,90,0.00,,,0.00,WUHU216HW,2017-11-23 12:20:00,
2017-11-23 04:25:00,41.5,38.8,29.81,ESE,113,0.0,0.0,90,0.00,,,0.00,WUHU216HW,2017-11-23 12:25:00,
2017-11-23 04:30:00,41.5,38.8,29.81,ENE,68,0.0,1.3,90,0.00,,,0.00,WUHU216HW,2017-11-23 12:30:00,
2017-11-23 04:35:00,41.5,38.8,29.80,ENE,68,0.0,1.3,90,0.00,,,0.00,WUHU216HW,2017-11-23 12:35:00,
2017-11-23 04:45:00,41.5,38.8,29.80,NNE,23,0.0,0.0,90,0.00,,,0.00,WUHU216HW,2017-11-23 12:45:00,
2017-11-23 04:50:00,41.3,38.6,29.80,NNE,23,0.0,0.0,90,0.00,,,0.00,WUHU216HW,2017-11-23 12:50:00,
2017-11-23 04:55:00,41.3,38.6,29.80,South,180,0.0,0.6,90,0.00,,,0.00,WUHU216HW,2017-11-23 12:55:00,
2017-11-23 05:01:00,41.3,38.6,29.80,South,180,0.0,0.6,90,0.00,,,0.00,WUHU216HW,2017-11-23 13:01:00,
2017-11-23 05:10:00,41.3,38.6,29.80,South,180,0.0,0.0,90,0.00,,,0.00,WUHU216HW,2017-11-23 13:10:00,
2017-11-23 05:15:00,41.3,38.6,29.79,North,0,0.0,0.0,90,0.00,,,0.00,WUHU216HW,2017-11-23 13:15:00,
2017-11-23 05:20:00,41.1,38.4,29.78,North,0,0.0,0.0,90,0.00,,,0.00,WUHU216HW,2017-11-23 13:20:00,
2017-11-23 05:30:00,41.1,38.4,29.78,NNE,23,0.0,0.0,90,0.00,,,0.00,WUHU216HW,2017-11-23 13:30:00,
2017-11-23 05:40:00,41.1,38.4,29.78,ENE,68,0.0,0.0,90,0.00,,,0.00,WUHU216HW,2017-11-23 13:40:00,
2017-11-23 05:50:00,41.1,38.4,29.78,ENE,68,0.0,0.0,90,0.00,,,0.00,WUHU216HW,2017-11-23 13:50:00,
2017-11-23 05:55:00,41.3,38.6,29.78,ENE,68,0.0,0.0,90,0.00,,,0.00,WUHU216HW,2017-11-23 13:55:00,
2017-11-23 06:01:00,41.3,38.6,29.78,SE,135,0.0,0.0,90,0.00,,,0.00,WUHU216HW,2017-11-23 14:01:00,
2017-11-23 06:06:00,41.3,38.6,29.78,SW,225,0.0,0.0,90,0.00,,,0.00,WUHU216HW,2017-11-23 14:06:00,
2017-11-23 06:11:00,41.1,38.4,29.78,WNW,293,0.0,0.0,90,0.00,,,0.00,WUHU216HW,2017-11-23 14:11:00,
2017-11-23 06:21:00,41.1,38.4,29.78,WNW,293,0.0,0.0,90,0.00,,,0.00,WUHU216HW,2017-11-23 14:21:00,
2017-11-23 06:26:00,41.1,38.4,29.78,WNW,293,0.0,0.0,90,0.00,,,0.00,WUHU216HW,2017-11-23 14:26:00,
2017-11-23 06:31:00,41.3,38.6,29.78,WNW,293,0.0,0.0,90,0.00,,,0.00,WUHU216HW,2017-11-23 14:31:00,
2017-11-23 06:36:00,41.3,38.6,29.78,WNW,293,0.0,0.0,90,0.00,,,0.00,WUHU216HW,2017-11-23 14:36:00,
2017-11-23 06:41:00,41.3,38.6,29.77,WNW,293,0.0,0.0,90,0.00,,,0.00,WUHU216HW,2017-11-23 14:41:00,
2017-11-23 06:46:00,41.1,38.4,29.77,NNE,23,0.0,0.0,90,0.00,,,0.00,WUHU216HW,2017-11-23 14:46:00,
2017-11-23 06:51:00,41.3,38.6,29.77,NE,45,0.0,0.0,90,0.00,,,0.00,WUHU216HW,2017-11-23 14:51:00,
2017-11-23 06:56:00,41.3,38.6,29.77,NE,45,0.0,0.0,90,0.00,,,0.00,WUHU216HW,2017-11-23 14:56:00,
2017-11-23 07:06:00,41.1,38.4,29.77,NE,45,0.0,0.0,90,0.00,,,0.00,WUHU216HW,2017-11-23 15:06:00,
2017-11-23 07:11:00,41.1,38.4,29.78,NNE,23,0.0,0.0,90,0.00,,,0.00,WUHU216HW,2017-11-23 15:11:00,
2017-11-23 07:21:00,41.1,38.4,29.78,NNE,23,0.0,0.0,90,0.00,,,0.00,WUHU216HW,2017-11-23 15:21:00,
2017-11-23 07:26:00,41.1,38.4,29.78,NE,45,0.0,0.0,90,0.00,,,0.00,WUHU216HW,2017-11-23 15:26:00,
2017-11-23 07:31:00,41.3,38.6,29.77,NE,45,0.0,0.0,90,0.00,,,0.00,WUHU216HW,2017-11-23 15:31:00,
2017-11-23 07:36:00,41.3,38.6,29.76,NE,45,0.0,0.0,90,0.00,,,0.00,WUHU216HW,2017-11-23 15:36:00,
2017-11-23 07:41:00,41.3,38.6,29.77,NE,45,0.0,0.0,90,0.00,,,0.00,WUHU216HW,2017-11-23 15:41:00,
2017-11-23 07:46:00,41.5,38.8,29.77,NE,45,0.0,0.0,90,0.00,,,0.00,WUHU216HW,2017-11-23 15:46:00,
2017-11-23 07:51:00,41.5,38.8,29.77,NE,45,0.0,0.0,90,0.00,,,0.00,WUHU216HW,2017-11-23 15:51:00,
2017-11-23 07:56:00,41.7,39.0,29.77,SE,135,0.0,0.0,90,0.00,,,0.00,WUHU216HW,2017-11-23 15:56:00,
2017-11-23 08:01:00,41.7,39.0,29.77,SE,135,0.0,0.0,90,0.00,,,0.00,WUHU216HW,2017-11-23 16:01:00,
2017-11-23 08:06:00,41.9,39.2,29.77,SW,225,0.0,0.0,90,0.00,,,0.00,WUHU216HW,2017-11-23 16:06:00,
2017-11-23 08:11:00,41.9,39.2,29.77,SSW,203,2.0,2.0,90,0.00,,,0.00,WUHU216HW,2017-11-23 16:11:00,
2017-11-23 08:21:00,42.0,39.3,29.76,SSW,203,0.0,2.0,90,0.00,,,0.00,WUHU216HW,2017-11-23 16:21:00,
2017-11-23 08:26:00,42.4,39.7,29.76,NE,45,0.0,0.0,90,0.00,,,0.00,WUHU216HW,2017-11-23 16:26:00,
2017-11-23 08:31:00,42.4,39.7,29.76,NE,45,0.0,0.0,90,0.00,,,0.00,WUHU216HW,2017-11-23 16:31:00,
2017-11-23 08:36:00,42.6,39.9,29.76,North,0,0.0,0.0,90,0.00,,,0.00,WUHU216HW,2017-11-23 16:36:00,
2017-11-23 08:41:00,42.6,39.9,29.75,North,0,0.0,0.0,90,0.00,,,0.00,WUHU216HW,2017-11-23 16:41:00,
2017-11-23 08:46:00,42.6,39.9,29.73,North,0,0.0,0.0,90,0.00,,,0.00,WUHU216HW,2017-11-23 16:46:00,
2017-11-23 08:51:00,42.6,40.1,29.73,North,0,0.0,0.0,90,0.00,,,0.00,WUHU216HW,2017-11-23 16:51:00,
2017-11-23 08:56:00,42.9,40.2,29.74,SW,225,0.8,0.8,90,0.00,,,0.00,WUHU216HW,2017-11-23 16:56:00,
2017-11-23 09:01:00,42.9,40.2,29.74,SSW,203,2.9,3.1,90,0.00,,,0.00,WUHU216HW,2017-11-23 17:01:00,
2017-11-23 09:11:00,43.1,40.4,29.74,SSE,158,0.0,6.0,90,0.00,,,0.00,WUHU216HW,2017-11-23 17:11:00,
2017-11-23 09:16:00,43.1,40.4,29.74,WNW,293,0.0,0.0,90,0.00,,,0.00,WUHU216HW,2017-11-23 17:16:00,
2017-11-23 09:21:00,43.5,40.8,29.73,ENE,68,0.0,0.0,90,0.00,,,0.00,WUHU216HW,2017-11-23 17:21:00,
2017-11-23 09:26:00,43.5,40.8,29.73,WNW,293,0.0,0.0,90,0.00,,,0.00,WUHU216HW,2017-11-23 17:26:00,
2017-11-23 09:31:00,43.5,40.8,29.73,WSW,248,0.0,0.0,90,0.00,,,0.00,WUHU216HW,2017-11-23 17:31:00,
2017-11-23 09:36:00,43.7,41.0,29.73,NE,45,0.0,0.0,90,0.00,,,0.00,WUHU216HW,2017-11-23 17:36:00,
2017-11-23 09:41:00,43.8,41.1,29.72,NNW,338,0.0,0.0,90,0.00,,,0.00,WUHU216HW,2017-11-23 17:41:00,
2017-11-23 09:46:00,43.8,41.1,29.73,NE,45,0.0,0.0,90,0.00,,,0.00,WUHU216HW,2017-11-23 17:46:00,
2017-11-23 09:51:00,43.8,41.1,29.74,ENE,68,0.0,0.0,90,0.00,,,0.00,WUHU216HW,2017-11-23 17:51:00,
2017-11-23 09:56:00,43.8,41.1,29.75,ESE,113,0.0,0.8,90,0.00,,,0.00,WUHU216HW,2017-11-23 17:56:00,
2017-11-23 10:01:00,44.2,41.5,29.76,ESE,113,0.0,0.8,90,0.00,,,0.00,WUHU216HW,2017-11-23 18:01:00,
2017-11-23 10:06:00,44.2,41.5,29.76,East,90,0.0,0.0,90,0.00,,,0.00,WUHU216HW,2017-11-23 18:06:00,
2017-11-23 10:13:00,44.4,41.7,29.76,North,0,0.0,2.2,90,0.00,,,0.00,WUHU216HW,2017-11-23 18:13:00,
2017-11-23 10:18:00,44.4,41.7,29.76,North,0,1.5,2.4,90,0.00,,,0.00,WUHU216HW,2017-11-23 18:18:00,
2017-11-23 10:23:00,44.4,41.7,29.76,NW,315,0.0,2.4,90,0.00,,,0.00,WUHU216HW,2017-11-23 18:23:00,
2017-11-23 10:28:00,44.4,41.7,29.75,ESE,113,0.0,0.6,90,0.00,,,0.00,WUHU216HW,2017-11-23 18:28:00,
2017-11-23 10:43:00,45.1,42.4,29.73,WNW,293,1.5,1.7,90,0.00,,,0.00,WUHU216HW,2017-11-23 18:43:00,
2017-11-23 10:48:00,45.6,42.9,29.72,NNW,338,4.6,5.1,90,0.00,,,0.00,WUHU216HW,2017-11-23 18:48:00,
2017-11-23 10:53:00,45.8,43.1,29.73,North,0,0.0,5.1,90,0.00,,,0.00,WUHU216HW,2017-11-23 18:53:00,
2017-11-23 10:58:00,45.8,43.1,29.73,North,0,2.4,4.2,90,0.00,,,0.00,WUHU216HW,2017-11-23 18:58:00,
2017-11-23 11:13:00,46.0,43.6,29.74,NE,45,1.1,1.1,91,0.00,,,0.00,WUHU216HW,2017-11-23 19:13:00,
2017-11-23 11:18:00,46.2,43.7,29.73,NNE,23,0.8,1.1,91,0.00,,,0.00,WUHU216HW,2017-11-23 19:18:00,
2017-11-23 11:23:00,46.2,43.7,29.74,ENE,68,4.6,4.6,91,0.00,,,0.00,WUHU216HW,2017-11-23 19:23:00,
2017-11-23 11:28:00,46.4,43.9,29.73,NE,45,2.0,4.6,91,0.00,,,0.00,WUHU216HW,2017-11-23 19:28:00,
2017-11-23 11:35:00,46.5,44.1,29.72,NE,45,3.5,3.5,91,0.00,,,0.00,WUHU216HW,2017-11-23 19:35:00,
2017-11-23 11:45:00,46.9,44.5,29.73,ENE,68,5.3,5.3,91,0.00,,,0.00,WUHU216HW,2017-11-23 19:45:00,
2017-11-23 11:55:00,46.9,44.5,29.70,NNW,338,0.0,5.3,91,0.00,,,0.00,WUHU216HW,2017-11-23 19:55:00,
2017-11-23 12:00:00,47.1,44.6,29.71,NNE,24,1.8,2.2,91,0.00,,,0.00,WUHU216HW,2017-11-23 20:00:00,
2017-11-23 12:05:00,47.1,44.6,29.70,NNE,23,1.5,2.2,91,0.00,,,0.00,WUHU216HW,2017-11-23 20:05:00,
2017-11-23 12:10:00,47.3,44.8,29.70,North,0,9.1,9.1,91,0.00,,,0.00,WUHU216HW,2017-11-23 20:10:00,
2017-11-23 12:20:00,47.4,45.0,29.70,NNE,23,0.0,5.3,91,0.00,,,0.00,WUHU216HW,2017-11-23 20:20:00,
2017-11-23 12:30:00,48.0,45.3,29.71,North,0,3.1,3.1,90,0.00,,,0.00,WUHU216HW,2017-11-23 20:30:00,
2017-11-23 12:35:00,48.0,45.3,29.70,East,90,0.0,3.1,90,0.00,,,0.00,WUHU216HW,2017-11-23 20:35:00,
2017-11-23 12:45:00,48.3,45.6,29.71,East,90,0.0,0.0,90,0.00,,,0.00,WUHU216HW,2017-11-23 20:45:00,
2017-11-23 12:55:00,48.5,45.8,29.71,SE,135,0.0,0.0,90,0.00,,,0.00,WUHU216HW,2017-11-23 20:55:00,
2017-11-23 13:00:00,48.7,45.9,29.72,SE,135,0.0,0.0,90,0.00,,,0.00,WUHU216HW,2017-11-23 21:00:00,
2017-11-23 13:05:00,48.7,45.9,29.71,ESE,113,0.0,0.0,90,0.00,,,0.00,WUHU216HW,2017-11-23 21:05:00,
2017-11-23 13:10:00,48.7,45.9,29.71,NE,45,0.0,0.0,90,0.00,,,0.00,WUHU216HW,2017-11-23 21:10:00,
2017-11-23 13:30:00,48.5,45.8,29.71,North,0,2.2,2.2,90,0.00,,,0.00,WUHU216HW,2017-11-23 21:30:00,
2017-11-23 13:35:00,48.3,45.6,29.71,North,0,1.3,2.6,90,0.00,,,0.00,WUHU216HW,2017-11-23 21:35:00,
2017-11-23 13:45:00,48.2,45.1,29.72,NNE,23,0.0,5.1,89,0.00,,,0.00,WUHU216HW,2017-11-23 21:45:00,
2017-11-23 13:50:00,48.0,44.9,29.73,NE,45,1.5,4.6,89,0.00,,,0.00,WUHU216HW,2017-11-23 21:50:00,
2017-11-23 13:55:00,48.0,44.9,29.73,NE,55,2.4,2.6,89,0.00,,,0.00,WUHU216HW,2017-11-23 21:55:00,
2017-11-23 14:00:00,48.0,44.9,29.74,NE,45,6.0,6.0,89,0.00,,,0.00,WUHU216HW,2017-11-23 22:00:00,
2017-11-23 14:05:00,48.0,44.9,29.75,ENE,68,3.5,6.0,89,0.00,,,0.00,WUHU216HW,2017-11-23 22:05:00,
2017-11-23 14:10:00,47.8,44.8,29.75,NNE,23,2.4,6.9,89,0.00,,,0.00,WUHU216HW,2017-11-23 22:10:00,
2017-11-23 14:15:00,47.8,44.8,29.75,ENE,68,0.0,6.9,89,0.00,,,0.00,WUHU216HW,2017-11-23 22:15:00,
2017-11-23 14:20:00,47.8,44.8,29.76,North,0,5.3,5.3,89,0.00,,,0.00,WUHU216HW,2017-11-23 22:20:00,
2017-11-23 14:25:00,47.4,44.4,29.77,North,0,1.5,6.4,89,0.00,,,0.00,WUHU216HW,2017-11-23 22:25:00,
2017-11-23 14:35:00,47.4,44.1,29.76,NE,45,3.8,13.1,88,0.00,,,0.00,WUHU216HW,2017-11-23 22:35:00,
2017-11-23 14:50:00,47.1,43.4,29.76,NW,315,0.0,5.1,87,0.00,,,0.00,WUHU216HW,2017-11-23 22:50:00,
2017-11-23 15:01:00,46.9,43.3,29.76,NE,45,0.0,6.2,87,0.00,,,0.00,WUHU216HW,2017-11-23 23:01:00,
2017-11-23 15:06:00,46.7,42.8,29.76,ESE,113,0.0,0.0,86,0.00,,,0.00,WUHU216HW,2017-11-23 23:06:00,
2017-11-23 15:11:00,46.5,42.6,29.76,East,90,2.6,2.6,86,0.00,,,0.00,WUHU216HW,2017-11-23 23:11:00,
2017-11-23 15:16:00,46.4,42.4,29.76,NE,45,0.0,2.6,86,0.00,,,0.00,WUHU216HW,2017-11-23 23:16:00,
2017-11-23 15:26:00,46.0,42.1,29.76,East,90,6.9,6.9,86,0.00,,,0.00,WUHU216HW,2017-11-23 23:26:00,
2017-11-23 15:31:00,45.6,41.7,29.76,NE,45,0.0,6.9,86,0.00,,,0.00,WUHU216HW,2017-11-23 23:31:00,
2017-11-23 15:36:00,45.6,41.7,29.76,ESE,113,0.0,6.9,86,0.00,,,0.00,WUHU216HW,2017-11-23 23:36:00,
2017-11-23 15:41:00,45.6,41.4,29.76,ESE,113,2.2,2.2,85,0.00,,,0.00,WUHU216HW,2017-11-23 23:41:00,
2017-11-23 15:56:00,45.1,40.9,29.78,ENE,68,0.0,0.8,85,0.00,,,0.00,WUHU216HW,2017-11-23 23:56:00,
2017-11-23 16:06:00,44.6,40.3,29.77,ENE,68,7.1,9.1,85,0.00,,,0.00,WUHU216HW,2017-11-24 00:06:00,
2017-11-23 16:11:00,44.6,40.3,29.78,NE,45,3.8,9.1,85,0.00,,,0.00,WUHU216HW,2017-11-24 00:11:00,
2017-11-23 16:16:00,44.4,40.1,29.79,ENE,68,0.0,5.1,85,0.00,,,0.00,WUHU216HW,2017-11-24 00:16:00,
2017-11-23 16:21:00,44.4,40.1,29.79,NE,45,3.8,3.8,85,0.00,,,0.00,WUHU216HW,2017-11-24 00:21:00,
2017-11-23 16:26:00,44.0,39.8,29.79,NE,45,7.1,7.1,85,0.00,,,0.00,WUHU216HW,2017-11-24 00:26:00,
2017-11-23 16:31:00,44.0,39.8,29.80,NNE,23,4.6,7.1,85,0.00,,,0.00,WUHU216HW,2017-11-24 00:31:00,
2017-11-23 16:36:00,44.4,40.0,29.79,NE,44,6.2,7.8,85,0.00,,,0.00,WUHU216HW,2017-11-24 00:36:00,
2017-11-23 16:41:00,44.4,40.1,29.79,East,81,6.4,7.8,85,0.00,,,0.00,WUHU216HW,2017-11-24 00:41:00,
2017-11-23 16:46:00,44.7,40.2,29.79,ENE,68,1.7,7.8,84,0.00,,,0.00,WUHU216HW,2017-11-24 00:46:00,
2017-11-23 16:51:00,44.7,39.9,29.79,NE,45,2.8,5.5,83,0.00,,,0.00,WUHU216HW,2017-11-24 00:51:00,
2017-11-23 17:01:00,44.9,39.8,29.79,NE,45,5.3,5.3,82,0.00,,,0.00,WUHU216HW,2017-11-24 01:01:00,
2017-11-23 17:06:00,45.1,39.2,29.79,NE,55,4.1,7.6,80,0.00,,,0.00,WUHU216HW,2017-11-24 01:06:00,
2017-11-23 17:11:00,45.1,39.0,29.79,NE,48,3.5,7.6,79,0.00,,,0.00,WUHU216HW,2017-11-24 01:11:00,
2017-11-23 17:16:00,44.9,38.8,29.79,ENE,68,4.6,4.6,79,0.00,,,0.00,WUHU216HW,2017-11-24 01:16:00,
2017-11-23 17:21:00,44.7,38.4,29.79,NNE,30,5.6,7.3,79,0.00,,,0.00,WUHU216HW,2017-11-24 01:21:00,
2017-11-23 17:31:00,44.4,38.3,29.80,NNE,23,4.9,5.1,79,0.00,,,0.00,WUHU216HW,2017-11-24 01:31:00,
2017-11-23 17:36:00,44.0,38.1,29.80,NE,52,7.6,10.5,78,0.00,,,0.00,WUHU216HW,2017-11-24 01:36:00,
2017-11-23 17:41:00,44.0,37.6,29.80,North,0,2.6,10.5,78,0.00,,,0.00,WUHU216HW,2017-11-24 01:41:00,
2017-11-23 17:46:00,44.0,37.2,29.80,North,0,4.0,7.1,77,0.00,,,0.00,WUHU216HW,2017-11-24 01:46:00,
2017-11-23 17:51:00,43.8,37.4,29.80,SE,135,0.0,7.1,78,0.00,,,0.00,WUHU216HW,2017-11-24 01:51:00,
2017-11-23 17:56:00,43.3,36.9,29.80,North,0,4.6,4.6,78,0.00,,,0.00,WUHU216HW,2017-11-24 01:56:00,
2017-11-23 18:01:00,43.3,36.9,29.80,East,90,0.8,4.6,78,0.00,,,0.00,WUHU216HW,2017-11-24 02:01:00,
2017-11-23 18:06:00,43.3,36.7,29.80,ESE,113,3.5,4.6,78,0.00,,,0.00,WUHU216HW,2017-11-24 02:06:00,
2017-11-23 18:11:00,42.6,36.2,29.80,ESE,113,0.0,3.5,78,0.00,,,0.00,WUHU216HW,2017-11-24 02:11:00,
2017-11-23 18:16:00,42.2,36.1,29.80,East,90,1.5,3.5,79,0.00,,,0.00,WUHU216HW,2017-11-24 02:16:00,